Wind_Speed
38 38 38 38 37 37 37 37 36 35 36 36 35 36 36 36 37 37 37 37 37 37 37 37 37 36 36 36 37 38 38 38 39 39 38 38 37 37 37 37 36 36 37
38 38 39 39 38 37 37 37 37 36 36 36 37 38 38 38 38 39 38 38 38 38 38 38 37 37 37 37 38 39 39 39 40 40 39 39 38 38 37 38 38 38 38
37 39 38 38 39 39 38 38 38 38 38 38 39 39 40 40 39 39 40 39 39 39 39 38 38 38 38 38 38 38 39 40 40 41 41 40 39 38 38 39 40 40 40
38 38 38 38 39 39 39 40 40 40 40 40 41 41 41 41 40 40 41 40 40 39 39 39 39 40 40 39 38 38 38 39 40 41 42 42 41 41 40 40 40 42 42
38 38 38 38 39 39 40 41 41 41 42 42 42 42 42 42 42 42 42 42 41 40 39 39 40 40 40 40 39 39 40 40 40 41 42 42 43 43 42 42 41 42 43
38 38 38 39 39 39 40 41 42 43 43 44 44 44 43 43 43 43 43 42 41 40 40 40 40 40 40 40 40 40 40 41 41 42 42 43 44 44 44 43 42 43 43
36 37 38 39 39 39 39 40 41 42 43 43 44 45 45 44 44 43 43 42 41 40 40 41 41 40 40 41 40 40 40 41 42 42 43 44 44 44 44 44 43 43 44
34 35 37 38 39 39 38 39 41 41 42 43 44 45 45 44 43 43 42 41 41 41 40 41 41 41 41 41 41 41 41 41 41 42 43 44 44 45 45 45 45 45 45
34 34 36 37 38 38 39 39 39 40 41 42 43 44 43 42 42 42 42 42 41 42 41 41 41 41 41 42 42 42 42 42 43 43 43 44 44 45 46 46 47 47 47
34 35 35 36 36 38 38 39 39 39 40 40 40 41 41 41 41 42 42 42 41 42 42 41 42 42 42 42 43 42 43 43 44 44 44 44 45 45 46 47 47 48 49
34 34 35 35 36 36 36 37 37 38 38 39 39 40 40 40 41 41 41 41 42 43 43 43 42 42 42 43 43 43 43 44 44 44 45 46 46 46 46 47 48 49 50
34 34 34 35 35 35 35 35 36 37 38 38 39 40 41 41 41 41 42 42 42 41 42 41 42 42 42 42 43 43 43 44 44 44 45 45 46 47 46 47 48 48 49
33 33 33 34 34 34 35 35 36 36 37 38 38 39 39 40 40 41 41 42 41 41 41 40 41 42 42 41 42 43 43 43 43 44 45 44 44 44 45 46 47 47 48
32 32 33 33 33 33 34 34 35 35 36 37 37 38 38 39 40 41 41 40 40 40 40 41 41 40 41 41 42 42 42 42 43 44 44 44 44 45 45 45 45 47 47
31 31 32 32 32 33 33 34 34 34 35 35 36 37 38 38 39 39 39 39 39 39 40 40 40 40 40 40 41 41 42 42 43 42 42 43 43 43 44 44 44 45 45
32 32 32 32 33 33 34 34 35 35 35 35 36 36 37 37 38 38 38 38 38 39 39 39 39 39 39 40 41 41 42 42 42 42 43 43 42 43 43 43 44 44 44
31 32 32 33 34 34 34 35 35 36 36 35 36 36 36 37 37 37 38 38 38 38 38 38 38 39 39 40 40 41 40 40 41 41 42 43 43 43 43 43 44 44 44
32 32 32 33 33 34 34 35 35 36 36 35 35 35 35 36 36 36 36 37 37 37 37 37 38 39 39 40 41 41 41 41 41 42 42 43 43 43 44 44 44 44 43
32 32 33 33 33 33 34 34 35 35 35 35 35 35 35 35 35 35 36 36 36 37 37 38 38 39 39 40 40 40 41 41 41 42 42 42 43 43 43 43 43 44 44
32 32 32 33 33 33 34 34 35 35 35 35 35 34 35 35 34 35 35 35 35 36 37 37 37 38 38 39 39 39 39 40 40 40 41 41 41 41 41 41 42 42 43
32 32 32 32 33 34 34 34 34 34 34 34 34 34 34 33 34 34 35 35 35 35 35 36 37 37 37 37 38 38 39 39 39 38 38 39 39 39 39 39 39 39 39
32 32 32 32 33 33 33 33 33 33 33 33 33 32 32 33 34 34 34 34 35 35 35 36 36 36 36 37 37 37 36 36 36 36 37 37 37 37 37 36 36 36 36
32 32 31 32 32 32 32 32 33 32 32 32 32 32 32 32 33 34 34 35 35 36 35 34 34 34 35 35 35 35 35 35 35 35 35 35 35 35 35 35 35 35 34
30 31 31 32 31 31 31 31 32 32 32 31 31 31 32 31 31 32 32 33 33 33 33 33 33 33 34 34 33 33 33 33 34 34 34 34 34 34 34 34 34 34 34
28 28 29 29 29 29 30 30 31 31 31 30 30 30 31 31 30 30 30 30 31 31 31 32 32 33 33 33 33 33 33 33 33 33 33 33 33 33 32 32 33 33 33
28 28 28 28 28 29 29 30 30 29 29 29 29 29 29 29 29 28 29 29 30 30 31 31 31 31 31 31 32 33 33 32 32 33 32 32 32 32 32 32 32 33 33
Wind_Direction
251 252 252 253 254 254 255 255 256 256 258 259 260 261 262 264 266 267 268 268 267 266 264 263 262 262 261 260 260 260 261 261 261 262 264 264 265 267 267 267 267 268 269
251 252 252 252 253 254 254 254 255 256 257 259 262 263 263 264 266 267 267 268 267 265 263 262 261 262 262 261 262 262 261 261 262 263 263 264 265 266 267 268 268 268 270
252 253 252 252 253 254 255 255 256 257 257 258 261 262 263 265 267 267 267 267 267 265 262 260 260 261 262 262 263 263 262 262 262 263 263 263 264 266 267 269 269 269 270
253 254 255 254 254 255 255 256 257 258 259 259 260 261 263 265 266 266 266 266 266 265 262 261 261 261 261 261 262 263 264 263 263 263 263 263 264 266 267 269 270 271 270
256 256 255 255 256 256 256 257 258 259 260 260 261 262 263 265 266 266 266 265 266 265 263 262 262 261 261 261 262 263 264 264 264 264 264 263 265 266 267 268 270 271 271
259 258 257 257 258 258 259 259 260 260 261 262 262 263 264 265 266 265 266 265 264 264 263 263 263 262 262 263 262 263 264 264 265 266 265 265 266 268 269 270 270 270 271
261 259 258 259 260 261 261 261 261 262 263 264 264 264 264 265 265 265 265 264 263 263 263 262 263 263 263 263 263 263 264 265 267 267 267 267 268 269 270 270 271 271 271
261 260 260 260 260 261 262 262 262 263 264 265 265 265 264 264 264 264 263 263 263 263 263 263 263 263 263 263 262 262 263 265 267 267 268 268 269 269 270 271 271 272 271
262 262 262 262 261 262 262 263 264 264 264 265 266 265 263 263 264 264 263 262 262 262 262 262 262 262 262 263 263 262 263 265 266 267 268 269 270 270 270 271 272 272 273
263 263 262 263 264 264 264 264 265 265 265 265 266 265 263 262 263 263 263 262 262 261 261 261 260 261 262 262 262 263 264 266 267 267 268 269 270 270 270 271 272 273 273
263 263 263 264 266 267 267 267 266 266 266 266 265 264 263 264 263 263 263 263 262 261 261 261 261 261 261 261 262 263 264 266 267 268 268 268 270 271 271 271 272 273 273
264 263 264 265 266 267 267 267 267 266 266 266 265 265 264 264 264 264 264 263 262 260 260 261 260 261 262 263 264 265 265 266 268 268 269 269 270 271 272 272 272 273 274
268 265 265 266 266 267 267 267 267 267 266 266 265 265 265 264 265 265 265 264 263 261 261 261 262 262 263 264 265 265 265 266 267 267 268 270 271 272 273 274 274 274 275
270 269 268 267 267 267 267 266 267 267 267 266 266 266 266 266 266 265 265 264 262 261 262 261 262 263 264 264 265 266 266 267 268 269 268 269 270 272 274 275 275 276 276
270 269 268 267 267 267 266 266 266 267 267 267 267 267 267 267 266 266 265 264 263 262 263 263 262 263 264 265 266 266 267 268 269 269 269 269 271 273 274 275 276 276 276
269 269 269 268 267 267 267 267 267 267 267 268 268 268 268 268 267 266 265 264 263 263 264 264 263 264 265 266 267 267 268 269 269 270 270 270 271 272 274 275 276 276 277
271 270 269 269 268 268 267 267 267 267 269 270 270 270 269 268 268 266 265 264 264 265 265 265 264 265 266 267 268 269 270 270 270 271 271 271 272 273 274 276 276 277 277
271 270 268 268 268 268 268 268 269 270 270 270 270 269 269 268 267 266 265 265 265 265 265 265 265 266 267 268 269 270 270 271 271 272 272 273 274 274 275 276 277 277 277
272 270 269 268 268 268 269 270 270 270 270 270 270 269 269 268 267 266 265 266 265 264 265 267 267 268 268 270 271 271 271 272 272 272 273 274 275 275 276 276 277 278 278
273 272 270 268 268 269 270 270 270 271 270 269 269 269 269 268 266 265 266 266 266 266 267 268 269 270 270 271 272 272 272 272 272 273 274 275 276 276 277 277 278 279 279
273 273 271 270 270 270 270 271 271 270 269 269 269 269 269 268 267 267 267 266 267 267 268 270 270 271 271 272 273 273 273 274 274 274 275 275 276 276 277 277 279 280 281
274 272 270 270 270 271 271 271 271 270 269 268 268 269 268 267 267 267 266 266 267 268 270 270 270 271 273 274 274 273 273 274 274 275 275 276 276 276 276 277 279 281 282
272 271 269 269 270 270 270 270 270 269 268 268 268 267 268 268 268 267 266 266 267 268 269 271 272 273 274 275 274 272 272 273 275 276 276 276 276 276 276 277 278 279 281
271 270 269 269 269 270 270 270 270 270 268 268 268 268 269 269 269 267 265 266 267 269 271 272 273 274 275 274 274 273 273 274 274 275 275 275 275 275 275 276 277 278 280
271 270 269 268 268 269 269 271 270 269 269 269 269 269 269 268 267 267 267 268 269 270 272 274 275 275 275 274 273 274 274 273 273 274 274 274 274 274 274 275 276 278 280
269 269 269 268 268 270 270 270 271 270 270 270 269 268 268 268 268 269 269 270 272 272 273 275 275 274 274 274 274 274 274 273 272 272 273 274 274 274 274 275 276 278 280
Height
5723 5725 5728 5730 5732 5734 5736 5738 5740 5741 5743 5745 5746 5747 5748 5748 5749 5749 5749 5749 5749 5750 5751 5752 5753 5754 5756 5757 5759 5760 5762 5763 5765 5766 5768 5769 5770 5771 5771 5771 5772 5772 5772
5713 5715 5718 5720 5722 5724 5726 5728 5730 5732 5734 5735 5737 5738 5739 5739 5740 5740 5739 5740 5740 5740 5741 5743 5744 5746 5747 5749 5750 5752 5753 5754 5756 5757 5758 5760 5762 5762 5762 5762 5763 5763 5763
5704 5706 5708 5711 5713 5715 5717 5719 5721 5722 5724 5725 5727 5728 5728 5729 5730 5730 5730 5730 5730 5731 5732 5733 5735 5737 5738 5740 5741 5742 5744 5745 5746 5747 5749 5750 5752 5753 5753 5753 5753 5753 5754
5696 5698 5699 5702 5704 5705 5707 5709 5711 5713 5714 5715 5716 5717 5718 5719 5720 5720 5720 5720 5721 5721 5722 5724 5725 5727 5729 5730 5732 5733 5735 5736 5737 5738 5739 5741 5742 5743 5744 5744 5744 5744 5744
5686 5688 5690 5692 5694 5696 5698 5700 5701 5702 5704 5705 5706 5707 5707 5708 5709 5709 5709 5710 5711 5711 5712 5714 5716 5717 5719 5721 5722 5724 5725 5726 5727 5728 5729 5730 5731 5732 5733 5734 5734 5734 5734
5677 5679 5681 5683 5684 5686 5688 5689 5691 5692 5693 5694 5695 5696 5697 5697 5698 5698 5699 5699 5700 5701 5702 5704 5706 5707 5709 5710 5712 5714 5715 5716 5717 5718 5719 5720 5721 5721 5721 5722 5723 5723 5724
5668 5670 5671 5673 5675 5676 5678 5679 5680 5681 5682 5683 5684 5685 5686 5686 5687 5688 5688 5689 5690 5691 5692 5694 5696 5697 5699 5700 5701 5703 5705 5706 5707 5708 5709 5710 5710 5710 5710 5711 5711 5712 5712
5659 5661 5662 5663 5665 5666 5667 5669 5669 5671 5671 5672 5673 5673 5674 5675 5676 5677 5677 5678 5680 5681 5682 5684 5685 5687 5688 5690 5691 5693 5694 5695 5696 5697 5698 5699 5699 5699 5699 5700 5700 5700 5701
5651 5652 5653 5654 5655 5656 5657 5659 5659 5660 5660 5661 5662 5662 5663 5664 5665 5666 5667 5668 5669 5671 5672 5673 5675 5676 5678 5679 5681 5682 5684 5685 5686 5686 5687 5688 5688 5688 5688 5688 5688 5688 5689
5642 5643 5644 5645 5646 5646 5647 5649 5649 5650 5650 5650 5651 5651 5652 5653 5654 5655 5656 5657 5658 5660 5661 5662 5664 5665 5667 5668 5670 5671 5672 5673 5674 5675 5676 5676 5676 5676 5676 5676 5676 5675 5675
5633 5634 5635 5636 5636 5637 5638 5638 5639 5639 5640 5640 5640 5641 5642 5642 5643 5644 5645 5646 5647 5649 5650 5651 5653 5654 5656 5657 5659 5660 5661 5662 5662 5663 5663 5664 5664 5664 5664 5664 5663 5663 5662
5624 5625 5626 5627 5627 5628 5628 5629 5629 5629 5629 5630 5630 5630 5631 5631 5632 5633 5634 5635 5636 5638 5639 5640 5642 5643 5645 5646 5647 5649 5649 5650 5650 5651 5651 5651 5652 5651 5651 5651 5650 5650 5649
5615 5616 5616 5617 5618 5618 5619 5619 5619 5619 5619 5619 5619 5620 5620 5620 5621 5622 5623 5624 5625 5626 5627 5629 5630 5632 5633 5635 5636 5637 5638 5638 5638 5639 5639 5639 5639 5639 5639 5638 5637 5636 5635
5606 5607 5607 5608 5608 5609 5609 5609 5609 5609 5609 5609 5609 5609 5609 5610 5610 5611 5612 5613 5614 5615 5616 5618 5619 5621 5622 5623 5624 5625 5625 5626 5626 5626 5627 5627 5627 5627 5626 5625 5624 5623 5622
5597 5598 5598 5599 5599 5599 5600 5600 5599 5599 5599 5599 5599 5599 5599 5599 5599 5600 5601 5602 5603 5605 5606 5607 5608 5609 5610 5611 5612 5613 5613 5614 5614 5614 5615 5615 5615 5614 5614 5613 5612 5611 5610
5589 5589 5589 5589 5590 5590 5590 5590 5590 5590 5590 5589 5589 5588 5588 5589 5589 5590 5591 5592 5593 5594 5595 5596 5597 5598 5599 5600 5601 5601 5602 5602 5602 5603 5603 5603 5603 5602 5601 5600 5599 5598 5597
5580 5580 5580 5580 5580 5580 5580 5580 5580 5580 5580 5579 5579 5579 5579 5579 5579 5579 5580 5581 5582 5583 5584 5586 5587 5588 5588 5589 5589 5590 5590 5590 5591 5591 5591 5590 5590 5589 5589 5588 5587 5585 5583
5571 5570 5570 5570 5570 5570 5570 5570 5570 5570 5570 5570 5569 5569 5569 5569 5569 5570 5570 5571 5572 5573 5574 5575 5576 5577 5577 5578 5578 5579 5579 5579 5579 5579 5578 5578 5578 5577 5576 5575 5574 5573 5571
5561 5561 5561 5561 5561 5561 5560 5560 5561 5560 5560 5560 5559 5559 5559 5559 5559 5560 5561 5561 5562 5563 5564 5565 5565 5566 5566 5567 5567 5567 5567 5568 5567 5567 5566 5566 5565 5565 5564 5563 5562 5561 5559
5551 5551 5551 5551 5551 5551 5551 5551 5551 5550 5550 5549 5549 5549 5549 5549 5550 5550 5551 5552 5552 5553 5554 5554 5555 5555 5556 5555 5555 5555 5556 5556 5556 5556 5555 5554 5553 5552 5551 5550 5549 5548 5547
5542 5542 5541 5541 5541 5541 5541 5541 5541 5540 5540 5539 5539 5539 5539 5540 5540 5541 5542 5542 5543 5543 5544 5545 5545 5545 5545 5544 5544 5544 5544 5545 5545 5544 5544 5543 5542 5541 5540 5539 5538 5536 5535
5532 5532 5532 5531 5531 5531 5531 5531 5531 5530 5530 5530 5530 5530 5530 5530 5530 5531 5532 5532 5533 5534 5534 5534 5534 5534 5534 5534 5533 5533 5533 5533 5533 5533 5533 5532 5531 5530 5529 5528 5527 5525 5524
5523 5522 5522 5522 5521 5521 5521 5521 5521 5520 5520 5520 5520 5520 5520 5520 5521 5522 5522 5523 5523 5524 5524 5524 5524 5524 5524 5523 5522 5523 5523 5522 5523 5522 5522 5522 5521 5520 5519 5518 5517 5516 5514
5512 5512 5512 5512 5512 5511 5511 5511 5511 5511 5511 5511 5511 5511 5511 5511 5511 5512 5512 5513 5514 5514 5514 5514 5514 5514 5513 5513 5512 5512 5512 5512 5512 5512 5512 5511 5511 5510 5509 5508 5507 5505 5504
5503 5502 5502 5502 5502 5502 5502 5501 5501 5501 5502 5502 5502 5502 5502 5502 5502 5502 5503 5503 5504 5504 5504 5504 5504 5504 5503 5503 5502 5502 5502 5502 5502 5502 5502 5501 5501 5500 5499 5498 5497 5495 5494
5494 5494 5493 5493 5493 5493 5493 5492 5492 5492 5492 5493 5493 5492 5492 5493 5493 5493 5494 5494 5494 5494 5494 5494 5494 5493 5493 5492 5492 5492 5492 5492 5492 5492 5492 5491 5491 5490 5489 5488 5487 5486 5484